Aérodrome :
LOGIN :

S'inscrire | Disclaimer

   EN    FR    IT 

 










Légende :    VFR   VFR Marginal   IFR   IFR Intensif   IFR Très Intensif
Visi : 
Plafond : 
>= 8 km
>= 3000ft
5 à 8 km
1000 à 3000 ft
1500m à 5 km
500 à 1000 ft
800 à 1500m
200 à 500 ft
< 800m
< 200 ft
Symboles :   Orages  Brouillard  Fortes neiges  Fortes précipitations  Vent > 20 kt
SIGMETs :   Divers  Orages  Givrage  Turbulence  Onde Orograph.  Cendres Volcan.







- Altitude de l'aérodrome : 112 ft
- Code IATA : SVQ


LEZL - Sevilla San Pablo

DERNIER METAR :
  • 161730Z 04001KT CAVOK 33/12 Q1015 NOSIG

METARs EXPIRÉS :
  • 161700Z 02003KT CAVOK 32/12 Q1016 NOSIG
  • 161630Z 30003KT CAVOK 32/12 Q1016 NOSIG
  • 161600Z 35004KT 290V090 CAVOK 32/13 Q1016 NOSIG
  • 161530Z 31004KT CAVOK 31/12 Q1017 NOSIG
  • 161500Z 05003KT CAVOK 31/12 Q1017 NOSIG

TAF TAF LEZL
Valide du 16 à 15h jusqu'au 17 à 15h UTC


161400Z 1615/1715 24005KT CAVOK TX36/1715Z TN19/1705Z
Pas de NOTAMs connus pour ce terrain.



MET'MAP, la Météo Aéronautique d'un coup d'oeil ! - Copyright ORBIFLY Décembre 2007 - Disclaimer

ORBIFLY MET'MAP TEAM :

Programmation & Développement : Alexandra Zaïnal
Conception & Développement : Baudouin d'Aumeries
Co-Programmation & Développement : Marc-Olivier Méhu
Soutien technique & logistique : Manuel Goepfert

Contact : metmap@orbifly.com




SOURCES & CREDITS :

   NOAA